Temperature
21 20 20 19 19 19 21 22 23 22 22 22 22 22 21 20 20 20 20 20 20 20 20 19 19 19 19 19 19 19 19 19 19 19 19 19 19 19 19 19 19 19 19 19 19 19 18 18 18
21 20 20 20 19 20 21 22 22 22 22 23 22 22 21 20 20 20 20 20 20 20 20 20 20 20 19 19 19 19 19 19 19 19 19 19 19 19 19 19 19 19 19 19 19 19 18 18 18
20 20 20 19 20 20 22 23 22 23 23 23 22 21 21 20 20 21 21 20 20 20 20 20 20 20 20 19 19 19 19 19 19 19 19 19 19 19 19 19 19 18 18 18 19 18 18 18 18
21 20 20 20 21 22 22 23 23 23 23 23 22 21 21 21 21 21 21 20 20 20 20 20 20 20 20 20 19 19 19 19 19 19 19 19 19 19 19 19 19 18 18 18 18 18 18 18 18
21 21 20 20 22 23 23 24 23 23 22 22 22 20 20 21 21 21 21 20 20 20 20 20 20 20 20 20 19 19 19 19 19 19 19 19 19 19 19 19 19 18 19 18 18 18 18 18 18
21 20 20 21 22 23 24 24 23 22 22 22 21 20 20 21 21 21 21 21 20 20 20 20 20 20 20 19 19 19 19 19 19 19 19 19 19 19 19 18 18 18 18 18 18 18 18 18 18
21 20 21 22 22 23 24 24 23 22 22 22 22 20 20 20 21 21 21 21 20 20 20 20 20 20 19 19 19 19 19 19 19 19 19 19 19 19 19 19 18 18 18 18 18 18 18 18 18
22 20 21 21 22 23 24 24 23 23 22 22 22 21 20 21 21 21 21 20 20 20 20 20 20 20 19 19 19 19 19 19 19 19 19 19 19 19 19 19 19 18 18 18 18 18 18 18 18
22 20 21 22 23 23 24 24 23 23 22 22 22 22 22 21 21 21 20 20 20 20 20 20 20 20 20 20 19 19 19 19 19 19 19 19 19 19 19 19 18 18 18 18 18 18 18 18 18
22 20 22 23 24 24 24 24 23 23 22 22 22 22 22 21 21 21 21 20 20 20 20 20 20 20 20 19 19 19 19 19 19 19 19 19 19 19 19 19 18 18 18 18 18 18 18 18 18
22 22 23 24 25 24 24 24 24 23 22 22 22 21 21 21 21 21 21 21 21 20 20 20 20 20 19 19 19 19 19 19 19 19 19 19 19 19 19 18 18 18 18 18 18 18 18 18 18
22 23 24 25 25 25 24 24 23 23 23 24 23 22 22 21 21 21 21 21 21 20 20 20 20 20 20 20 19 19 19 19 19 19 19 19 19 19 19 18 18 18 18 18 18 18 18 18 18
24 24 25 25 25 25 25 24 23 23 24 24 23 22 22 22 22 21 21 21 21 21 20 20 20 20 20 20 19 19 19 19 19 19 19 19 19 19 18 18 18 18 18 18 18 18 18 18 18
25 24 25 25 25 25 24 24 23 23 23 23 22 22 22 22 22 21 21 21 21 21 21 20 20 20 20 20 20 19 19 19 19 19 19 19 19 19 18 18 18 18 18 18 18 18 18 18 18
25 24 24 25 25 25 25 24 23 23 23 22 22 22 22 22 22 22 22 22 21 21 21 21 20 20 20 20 20 19 19 19 19 19 19 19 19 19 18 18 18 18 18 18 18 18 18 18 18
24 24 24 25 25 25 24 23 24 23 23 22 22 22 22 22 22 22 22 22 21 21 21 21 20 20 20 20 20 20 19 19 19 19 19 19 19 18 18 18 18 18 18 18 18 18 18 18 18
23 23 24 25 25 24 24 23 23 23 23 22 22 22 22 22 22 22 22 22 22 21 21 21 21 20 20 20 20 20 19 19 19 19 19 19 19 18 18 18 18 18 18 18 18 18 18 18 18
23 23 24 24 25 24 23 23 23 23 22 22 22 22 22 22 22 22 22 22 22 21 21 21 21 20 20 20 20 19 19 19 19 19 19 19 19 18 18 18 18 18 18 18 18 17 18 18 17
24 24 24 24 25 24 23 23 23 23 22 22 22 22 22 22 22 22 22 22 22 21 21 21 21 20 20 20 19 19 19 19 19 19 19 19 18 18 18 18 18 18 18 18 18 17 17 17 17
24 24 24 24 25 25 23 23 23 22 22 22 22 22 22 22 22 22 22 22 22 21 21 21 21 20 20 20 20 19 19 19 19 19 19 19 18 18 18 18 18 18 18 18 18 18 17 17 17
24 24 24 24 24 24 24 23 23 23 23 23 23 23 23 23 23 22 22 22 22 21 21 21 21 20 20 20 19 19 19 19 19 19 19 19 18 18 18 18 18 18 18 18 18 17 17 17 17
24 25 25 24 23 22 23 22 22 22 22 22 22 22 23 23 23 23 22 22 22 22 21 21 21 20 20 20 19 19 19 19 19 19 19 18 18 18 18 18 18 18 18 18 18 17 17 17 17
24 25 24 24 23 22 22 22 22 21 21 21 22 22 23 23 23 23 22 22 22 22 21 21 21 20 20 19 19 19 19 19 19 19 19 18 18 18 18 18 18 18 18 17 17 17 17 17 17
25 24 22 20 20 22 22 22 22 20 21 22 22 22 22 23 23 23 22 22 22 22 21 21 21 20 20 20 19 19 19 19 19 19 19 18 18 18 18 18 18 18 18 17 17 17 17 17 17
24 22 21 22 20 21 21 21 21 22 22 22 22 22 23 23 23 22 22 22 22 22 21 21 21 20 20 20 19 19 19 19 19 19 19 18 18 18 18 18 18 18 17 17 17 17 17 17 17
23 22 22 22 21 21 21 21 22 22 22 23 23 23 22 22 22 22 22 22 22 22 22 21 21 20 20 20 19 19 19 19 19 19 19 18 18 18 18 18 17 17 17 17 17 17 17 17 16
23 21 21 20 20 21 21 21 21 22 22 22 22 22 22 22 22 22 22 22 22 22 22 21 21 21 20 20 20 19 19 19 19 19 19 18 18 18 18 17 17 17 17 17 17 17 17 16 16
23 20 19 19 21 21 22 22 21 22 22 21 20 21 21 21 22 22 22 22 22 22 21 21 21 20 20 19 19 19 19 19 19 18 18 18 18 18 17 17 17 17 17 16 16 16 16 16 16
22 21 18 17 19 20 21 21 22 21 21 21 20 21 21 21 21 22 22 22 22 21 21 21 20 20 20 19 19 19 19 19 18 18 18 18 18 17 17 17 17 17 16 16 16 16 16 16 16
23 21 19 21 20 18 19 21 22 21 20 20 20 21 21 21 22 22 22 21 21 21 21 21 20 20 20 19 19 19 19 19 18 18 18 17 17 17 17 17 17 17 17 16 16 16 16 16 16
Wind_Speed
8 7 3 1 2 3 2 3 1 3 3 2 4 4 5 3 2 2 0 5 5 4 4 7 8 9 10 11 11 11 12 12 12 12 12 12 12 12 12 12 11 11 12 12 12 12 12 12 12
7 5 1 1 3 3 3 2 2 2 2 3 4 5 5 4 2 4 2 4 6 5 5 6 8 9 9 10 11 12 12 12 12 12 11 11 11 12 12 11 11 11 11 11 11 11 11 11 11
6 3 1 2 2 2 1 0 3 3 2 2 3 4 3 2 3 3 3 7 6 4 4 6 8 8 9 10 11 11 11 11 11 11 10 10 10 10 10 10 10 10 10 10 10 10 9 10 10
3 1 2 3 2 1 3 2 2 3 3 5 4 4 3 2 3 4 7 8 6 3 3 5 7 8 9 10 11 11 11 11 10 10 10 9 9 9 9 9 9 8 8 8 8 8 8 8 9
1 2 4 3 2 2 1 2 2 2 2 3 3 4 3 3 6 8 8 7 6 3 2 4 7 8 10 11 11 11 10 11 9 9 8 8 7 7 8 8 8 7 7 7 8 7 7 7 7
2 3 4 2 2 2 1 1 2 3 3 2 3 3 1 2 6 7 7 6 5 4 3 3 6 8 10 10 10 10 10 9 8 7 7 7 6 6 6 6 6 6 6 6 6 6 6 6 6
2 3 1 1 0 1 1 2 2 3 3 1 3 3 1 1 4 6 6 5 4 4 3 2 3 6 7 8 9 9 8 8 7 6 6 6 5 5 5 4 4 5 5 5 5 5 5 5 4
3 3 1 1 1 1 1 2 2 3 2 2 3 5 4 4 6 7 6 6 4 3 2 1 2 3 4 5 6 7 7 7 7 5 5 5 4 4 3 3 3 4 4 4 4 4 4 3 3
3 3 1 3 3 2 2 2 2 2 4 2 2 3 5 9 10 8 6 4 3 3 2 2 1 2 2 3 5 6 6 6 6 5 5 4 3 3 2 2 2 2 3 3 3 3 2 2 2
3 2 5 4 4 3 2 2 3 3 2 1 3 5 9 11 10 9 7 6 5 3 2 2 2 2 2 3 4 3 4 4 4 4 4 4 3 3 3 3 3 2 2 2 2 2 2 2 1
4 5 3 2 3 3 3 2 2 5 2 5 7 9 11 10 9 9 8 7 7 5 4 3 2 2 3 2 3 3 3 3 3 3 3 3 3 3 3 2 2 2 2 2 1 2 1 1 1
3 4 3 2 2 3 3 3 2 4 5 5 8 10 11 11 11 10 10 8 6 5 4 4 3 3 3 2 2 3 2 2 2 2 2 2 1 1 1 1 1 2 1 2 1 1 1 1 1
3 2 1 2 2 2 3 2 2 1 3 6 8 9 11 11 10 8 7 7 6 5 5 4 4 4 3 3 2 3 2 2 2 2 2 2 1 1 1 1 1 1 1 1 1 1 1 1 1
2 0 1 1 1 2 3 1 2 2 5 7 8 8 9 11 10 7 7 7 7 6 5 5 5 4 4 4 3 2 2 2 2 2 2 2 2 1 1 1 1 0 0 1 1 1 1 0 0
1 3 4 1 1 2 4 2 2 3 7 8 8 8 8 8 8 8 9 8 8 6 5 5 6 5 5 4 4 3 3 3 2 1 2 2 2 2 1 1 0 0 0 1 1 1 1 1 1
3 4 1 3 1 2 5 3 3 6 8 8 7 7 7 7 8 8 7 7 7 6 6 6 6 6 5 4 4 3 2 2 2 1 1 2 2 2 2 1 0 0 1 1 1 1 1 1 1
4 1 2 3 2 3 3 4 4 6 8 8 7 7 8 7 7 6 7 7 7 7 7 6 5 6 5 4 3 3 2 2 1 1 1 1 2 2 2 1 0 1 1 1 1 1 1 1 1
2 2 3 4 3 2 3 5 3 6 8 8 7 7 7 8 8 7 7 7 7 6 6 6 5 5 5 4 3 2 2 1 1 1 1 1 1 2 2 1 1 1 1 1 1 2 2 1 1
3 3 5 6 2 3 5 5 4 6 7 7 6 6 6 7 5 5 6 7 7 6 6 6 6 5 5 3 3 2 1 1 1 1 1 1 1 2 2 1 1 1 1 1 1 1 2 2 1
3 3 4 4 1 2 3 5 4 6 8 8 8 8 8 6 4 5 5 6 7 7 6 6 6 6 5 4 3 2 2 1 1 0 1 1 1 1 1 2 1 1 1 1 1 2 1 1 1
3 5 4 3 2 2 1 4 2 2 3 4 5 6 7 9 8 7 7 7 7 7 7 7 6 6 5 5 4 3 2 2 1 1 1 1 1 1 1 1 1 1 1 1 1 2 2 1 1
5 5 5 2 2 2 1 3 6 3 3 5 6 6 7 7 8 7 7 7 7 7 6 6 6 6 5 5 5 5 4 3 2 1 1 1 1 1 1 1 1 1 1 1 1 1 1 2 1
5 1 2 2 3 1 1 1 7 1 4 7 8 8 9 8 9 9 9 8 7 6 6 5 5 5 5 5 6 5 4 3 2 1 1 0 1 1 0 1 1 1 1 1 1 1 1 1 2
3 5 6 6 5 1 3 3 6 4 7 5 6 9 9 9 9 8 7 6 6 6 6 5 6 5 5 6 6 6 6 5 4 2 2 1 0 0 0 1 1 1 1 1 1 1 2 1 1
4 5 4 4 3 5 2 3 8 7 6 6 7 8 8 9 9 9 8 8 7 8 7 7 6 5 5 6 6 6 7 6 6 4 3 2 1 1 1 1 1 1 1 1 1 2 1 1 1
4 8 7 5 5 5 1 5 7 5 4 4 3 4 6 7 7 8 9 9 9 9 8 7 7 6 5 5 6 5 5 4 4 4 3 3 2 2 1 2 2 1 1 1 2 2 1 1 1
5 4 6 7 3 1 5 6 7 2 1 0 1 3 5 6 7 7 7 7 7 8 8 8 7 5 5 5 5 5 5 5 4 4 3 2 2 2 2 2 2 1 1 1 2 2 1 1 1
4 8 6 6 5 3 5 5 5 5 3 2 2 3 4 4 5 6 6 6 6 7 7 6 6 6 5 4 4 5 4 4 4 4 4 3 3 2 2 2 2 2 1 1 2 1 1 1 0
4 4 5 5 5 5 3 7 5 7 5 5 5 5 5 6 6 6 6 6 6 6 7 6 6 5 4 4 3 4 4 4 4 3 3 3 3 3 3 2 2 2 2 2 2 1 1 1 0
4 5 7 5 3 4 4 7 5 4 4 4 4 4 4 5 5 5 5 5 6 6 6 6 6 5 5 4 4 3 4 4 3 3 3 2 3 3 3 3 2 1 1 1 2 2 1 2 1
Wind_Direction
159 150 149 144 50 44 351 327 11 25 31 38 57 69 90 84 109 147 178 140 134 140 151 152 146 137 134 133 129 124 123 123 125 127 130 133 135 137 138 138 139 140 141 143 144 146 145 144 143
151 159 169 56 71 44 333 333 46 53 141 137 71 66 72 67 72 110 129 140 135 141 148 153 150 146 142 138 132 127 128 127 127 127 129 133 137 137 136 135 137 139 141 146 148 148 148 146 143
163 188 97 64 76 157 234 321 117 99 82 56 63 51 71 97 120 144 158 137 125 134 148 159 154 153 150 145 137 132 131 132 130 129 130 131 135 139 139 139 140 142 145 147 149 151 151 153 152
164 110 56 57 16 246 201 213 134 101 41 43 77 57 49 41 143 140 133 131 128 135 145 160 152 148 148 146 141 137 136 136 135 134 134 135 136 139 143 143 144 145 146 146 148 153 156 158 158
119 83 51 28 334 316 159 152 127 80 53 49 75 82 36 20 96 118 128 133 138 138 143 159 143 144 144 143 141 138 139 138 137 136 136 137 138 142 145 146 148 148 148 147 151 155 159 160 161
56 63 62 16 340 356 89 103 87 81 78 80 88 96 53 72 108 127 133 138 142 139 131 144 139 137 137 140 141 140 138 138 140 137 136 137 139 141 148 150 148 153 153 155 162 161 160 159 162
91 83 107 196 335 345 136 99 103 108 104 111 115 106 107 133 133 131 123 120 122 120 111 108 131 138 142 142 140 140 137 137 138 137 135 136 137 137 138 141 148 156 161 163 165 163 160 166 171
133 96 22 240 173 260 156 110 111 118 121 122 119 141 182 187 137 118 104 95 100 106 108 96 104 123 140 146 143 140 134 134 133 134 132 130 122 119 119 133 149 157 155 156 156 160 160 163 171
126 73 238 219 187 212 151 124 111 86 104 91 97 155 162 138 131 121 108 94 106 126 108 110 102 103 124 135 140 133 129 127 124 126 122 112 104 96 95 121 143 156 153 156 152 153 151 141 140
125 160 230 212 181 176 164 134 153 112 105 94 83 96 123 135 143 144 149 157 164 169 158 134 125 111 108 133 116 108 114 114 112 112 106 101 93 83 78 105 116 113 119 133 137 114 107 120 102
170 202 237 216 180 154 141 128 134 136 183 202 168 152 146 150 156 161 168 172 179 176 166 156 151 126 122 115 114 107 101 100 93 90 99 104 89 68 52 53 52 53 71 68 72 63 72 104 103
188 239 222 206 157 137 152 138 127 180 209 183 165 158 157 162 172 176 177 180 171 164 169 162 151 137 139 131 120 114 112 111 108 112 120 117 99 65 44 42 31 42 61 66 63 74 72 88 94
198 254 211 167 167 154 133 140 146 213 151 134 147 160 170 175 179 181 177 173 167 172 175 167 159 156 154 138 135 128 123 126 141 141 136 143 133 103 67 27 48 53 63 83 81 75 62 70 81
208 168 6 94 126 132 126 116 92 211 147 144 156 174 183 183 179 172 172 176 180 181 176 165 163 162 151 147 142 147 140 138 136 146 158 160 158 132 105 66 53 41 51 113 115 89 69 49 85
82 62 21 7 110 149 113 33 208 181 147 155 172 182 184 186 180 183 186 183 182 182 174 170 170 159 154 156 157 150 150 148 141 161 161 158 164 162 148 118 69 9 178 97 87 68 75 74 81
51 63 27 276 123 134 122 235 237 160 157 170 181 183 185 191 192 191 184 180 176 172 171 178 173 157 156 157 153 147 144 139 148 167 155 157 170 174 153 125 124 167 114 98 92 73 80 65 74
40 78 250 270 203 147 155 236 235 164 170 179 186 189 191 194 199 195 182 177 174 175 170 167 161 154 155 150 136 135 125 128 141 143 150 167 180 177 153 158 168 121 100 83 75 74 102 96 62
238 242 249 250 237 153 207 243 225 175 178 187 189 191 195 199 204 193 181 174 169 167 162 158 154 150 143 133 117 105 95 108 115 128 175 175 181 178 155 143 111 108 93 63 70 80 77 95 66
201 221 254 260 234 180 236 251 232 190 190 192 191 193 200 206 197 177 174 168 162 162 159 161 161 158 147 139 141 140 155 154 143 164 133 140 153 168 146 141 117 113 120 138 127 111 87 70 81
205 236 262 289 306 180 241 270 255 198 201 199 196 198 203 196 178 169 164 164 169 172 169 166 171 168 167 164 153 145 139 142 158 188 54 69 105 155 154 157 156 136 132 105 123 139 130 89 88
242 213 227 235 348 37 59 324 286 226 204 209 208 199 193 193 190 180 174 175 172 174 179 181 180 173 168 157 133 116 88 60 43 13 351 357 68 122 130 145 150 145 150 164 183 168 155 164 71
258 232 207 177 103 302 75 287 283 243 230 220 219 208 198 194 184 177 174 178 181 185 179 173 173 168 164 157 155 154 159 177 205 201 220 344 42 82 118 133 148 147 145 166 205 169 163 158 164
220 161 136 128 135 41 8 179 288 304 245 242 223 213 205 195 183 182 182 183 181 177 171 165 159 165 163 163 167 162 167 180 167 134 126 62 5 20 74 126 136 154 169 182 180 147 150 161 162
153 65 55 52 73 329 244 177 278 237 226 243 224 215 206 193 184 180 172 165 170 168 166 161 159 169 168 168 171 173 175 170 159 165 178 204 252 334 16 130 144 157 162 170 175 154 135 141 146
100 91 34 2 8 253 253 199 250 244 231 225 222 214 200 185 178 172 167 171 178 177 177 172 170 176 175 175 182 186 184 178 181 185 187 186 191 208 234 163 155 159 157 134 120 108 114 133 145
172 145 161 198 224 272 291 236 256 260 249 236 213 189 175 172 175 174 177 179 185 183 180 176 176 181 179 181 188 184 179 180 187 186 182 189 202 207 188 152 140 125 105 109 111 111 108 105 126
139 170 164 136 148 263 278 284 301 315 9 113 132 141 170 172 172 174 174 177 180 180 181 179 176 180 181 180 177 171 171 174 179 176 177 187 195 185 155 146 131 112 102 116 124 118 108 107 117
129 142 106 123 147 243 287 280 262 279 270 246 202 181 186 166 165 169 168 170 182 178 174 168 170 176 176 172 179 179 174 176 173 166 176 186 189 170 152 142 135 127 123 122 116 118 117 109 76
103 98 104 114 146 160 242 270 233 229 224 219 218 202 185 176 171 173 168 170 167 158 162 166 169 167 167 171 168 164 167 168 163 171 186 187 176 164 167 165 150 147 151 142 131 139 135 125 67
148 157 149 151 199 171 180 264 291 236 219 207 206 193 183 176 165 156 152 153 158 161 166 168 170 170 173 168 159 160 160 158 167 181 187 179 171 169 168 163 159 166 160 168 169 188 181 169 178
Height
1489 1489 1490 1492 1494 1500 1501 1493 1487 1486 1486 1486 1485 1485 1487 1489 1493 1497 1493 1492 1492 1492 1492 1493 1493 1494 1495 1496 1498 1499 1501 1503 1504 1506 1507 1508 1509 1510 1511 1513 1514 1515 1516 1518 1519 1520 1522 1524 1525
1489 1490 1492 1493 1499 1510 1504 1491 1489 1487 1487 1486 1486 1487 1488 1489 1490 1491 1491 1492 1493 1493 1493 1493 1493 1493 1494 1496 1498 1500 1502 1504 1506 1507 1508 1510 1511 1512 1513 1514 1515 1516 1517 1519 1520 1522 1523 1525 1526
1490 1491 1493 1494 1501 1507 1501 1490 1488 1487 1487 1487 1488 1489 1490 1491 1491 1492 1493 1493 1494 1494 1494 1493 1492 1492 1493 1495 1499 1501 1504 1506 1507 1509 1510 1511 1512 1513 1514 1515 1516 1518 1519 1520 1521 1523 1524 1525 1527
1491 1493 1494 1499 1501 1496 1493 1489 1487 1488 1488 1488 1489 1491 1492 1494 1494 1494 1494 1495 1495 1495 1495 1494 1492 1491 1492 1495 1499 1502 1505 1507 1509 1510 1511 1512 1513 1514 1515 1516 1518 1519 1520 1521 1522 1523 1525 1526 1527
1492 1493 1498 1503 1499 1493 1489 1488 1488 1488 1489 1490 1491 1493 1495 1496 1495 1496 1496 1497 1497 1497 1497 1495 1493 1492 1494 1497 1501 1504 1507 1509 1511 1512 1513 1514 1515 1515 1516 1517 1518 1519 1521 1522 1523 1524 1525 1526 1527
1493 1494 1505 1509 1500 1492 1489 1489 1489 1489 1491 1492 1493 1494 1496 1497 1497 1498 1498 1499 1500 1500 1499 1499 1498 1497 1499 1502 1505 1507 1509 1511 1512 1514 1514 1515 1515 1516 1517 1518 1519 1520 1521 1522 1523 1524 1526 1527 1528
1495 1498 1504 1503 1501 1495 1491 1490 1490 1491 1492 1493 1494 1495 1497 1498 1499 1500 1500 1501 1502 1502 1502 1502 1502 1503 1504 1506 1508 1510 1511 1513 1514 1515 1516 1516 1516 1517 1517 1518 1519 1520 1521 1522 1524 1525 1526 1527 1528
1494 1498 1502 1503 1500 1496 1491 1490 1491 1492 1493 1494 1494 1495 1497 1498 1499 1501 1502 1503 1504 1505 1505 1505 1506 1507 1508 1510 1511 1512 1514 1515 1516 1516 1517 1517 1517 1517 1517 1517 1519 1520 1521 1522 1524 1525 1526 1528 1529
1495 1502 1506 1500 1497 1494 1490 1491 1492 1493 1493 1494 1494 1495 1497 1498 1500 1501 1503 1504 1505 1506 1507 1508 1509 1510 1511 1512 1513 1515 1516 1517 1518 1518 1518 1518 1518 1517 1517 1517 1518 1520 1521 1523 1524 1525 1527 1528 1529
1494 1503 1498 1491 1489 1489 1490 1491 1492 1493 1494 1494 1495 1496 1497 1499 1500 1502 1503 1504 1506 1507 1509 1510 1511 1512 1513 1514 1515 1517 1518 1518 1519 1519 1520 1519 1519 1518 1517 1517 1518 1520 1522 1523 1524 1525 1527 1528 1529
1492 1495 1490 1487 1487 1488 1489 1491 1492 1493 1495 1493 1494 1496 1497 1499 1501 1502 1504 1505 1507 1509 1510 1511 1512 1514 1515 1516 1517 1518 1519 1520 1521 1521 1521 1521 1521 1520 1519 1519 1520 1521 1522 1523 1525 1526 1527 1528 1529
1491 1488 1488 1487 1487 1488 1489 1490 1492 1492 1492 1492 1494 1495 1497 1499 1500 1502 1504 1506 1508 1510 1511 1512 1514 1515 1516 1518 1519 1520 1521 1521 1522 1522 1523 1522 1522 1522 1521 1521 1522 1523 1523 1524 1525 1526 1527 1528 1529
1490 1487 1486 1486 1487 1488 1489 1490 1491 1491 1491 1493 1495 1496 1497 1498 1500 1503 1505 1507 1509 1511 1512 1513 1515 1516 1518 1519 1520 1521 1522 1522 1523 1523 1524 1524 1523 1523 1523 1523 1523 1524 1524 1525 1525 1526 1527 1528 1529
1487 1487 1487 1487 1487 1488 1489 1490 1492 1492 1493 1493 1495 1496 1497 1499 1501 1503 1505 1507 1509 1511 1513 1514 1516 1517 1518 1519 1520 1521 1522 1523 1524 1524 1525 1525 1524 1524 1524 1524 1524 1525 1525 1525 1526 1527 1527 1528 1529
1487 1489 1489 1488 1488 1489 1490 1494 1492 1491 1492 1493 1495 1496 1498 1499 1501 1503 1505 1507 1509 1511 1513 1515 1516 1518 1519 1520 1521 1522 1523 1523 1524 1525 1525 1525 1525 1525 1525 1525 1525 1526 1526 1526 1526 1527 1527 1528 1529
1489 1495 1500 1491 1488 1489 1494 1501 1491 1491 1492 1493 1495 1496 1498 1499 1501 1503 1506 1508 1510 1511 1513 1515 1516 1518 1519 1520 1521 1522 1523 1524 1524 1525 1526 1526 1526 1526 1526 1526 1526 1526 1526 1526 1526 1527 1527 1528 1528
1498 1506 1504 1495 1489 1489 1494 1497 1489 1490 1491 1492 1494 1495 1497 1499 1501 1503 1505 1507 1509 1511 1513 1515 1516 1518 1519 1521 1522 1523 1523 1524 1525 1525 1526 1526 1526 1526 1526 1526 1526 1526 1526 1526 1526 1526 1527 1527 1528
1506 1505 1502 1499 1490 1491 1494 1493 1489 1489 1490 1491 1493 1494 1496 1497 1499 1502 1504 1506 1509 1511 1513 1515 1516 1518 1519 1521 1522 1522 1523 1524 1525 1525 1526 1526 1526 1526 1526 1526 1526 1526 1526 1526 1526 1526 1527 1527 1528
1496 1500 1501 1495 1487 1491 1493 1492 1489 1488 1490 1491 1492 1494 1495 1496 1499 1501 1504 1506 1508 1510 1512 1514 1515 1517 1519 1520 1521 1522 1522 1523 1524 1525 1526 1526 1526 1526 1527 1527 1526 1527 1526 1526 1526 1526 1526 1527 1527
1494 1499 1499 1493 1487 1490 1494 1492 1488 1487 1488 1488 1490 1491 1493 1495 1497 1500 1502 1505 1507 1509 1511 1513 1514 1516 1518 1519 1521 1522 1522 1523 1524 1525 1525 1526 1526 1526 1526 1526 1526 1526 1526 1526 1526 1526 1526 1527 1527
1494 1497 1495 1495 1491 1490 1494 1496 1491 1487 1487 1489 1489 1490 1492 1494 1496 1498 1501 1503 1506 1508 1510 1512 1514 1515 1517 1518 1520 1521 1522 1523 1523 1524 1524 1525 1525 1526 1526 1526 1526 1526 1526 1526 1526 1526 1526 1526 1527
1496 1486 1488 1492 1501 1507 1500 1515 1496 1489 1488 1487 1487 1488 1490 1492 1494 1497 1499 1502 1504 1506 1509 1511 1513 1515 1516 1517 1518 1519 1520 1521 1522 1523 1524 1524 1525 1525 1525 1526 1526 1526 1526 1526 1526 1526 1526 1526 1526
1486 1482 1487 1492 1500 1508 1505 1512 1503 1491 1491 1486 1484 1485 1487 1489 1492 1494 1497 1500 1503 1505 1508 1510 1512 1513 1515 1516 1517 1518 1519 1520 1521 1522 1523 1523 1524 1524 1525 1525 1525 1525 1525 1525 1525 1525 1525 1525 1525
1480 1486 1493 1501 1508 1520 1509 1513 1508 1495 1487 1482 1481 1482 1484 1486 1489 1492 1495 1498 1501 1504 1506 1508 1510 1511 1513 1514 1515 1517 1517 1519 1520 1521 1521 1522 1522 1523 1523 1524 1524 1524 1524 1524 1524 1524 1525 1524 1524
1483 1499 1518 1521 1529 1525 1508 1510 1503 1483 1478 1477 1477 1478 1480 1483 1486 1489 1492 1495 1498 1501 1503 1506 1508 1509 1511 1513 1514 1515 1516 1517 1518 1519 1520 1521 1521 1522 1522 1523 1523 1523 1523 1523 1523 1524 1523 1523 1523
1486 1495 1518 1528 1531 1523 1510 1510 1492 1477 1474 1474 1475 1476 1478 1481 1484 1486 1490 1493 1496 1498 1501 1504 1505 1507 1509 1510 1512 1513 1515 1516 1517 1518 1519 1519 1520 1520 1521 1521 1522 1522 1522 1522 1522 1522 1522 1522 1522
1486 1494 1494 1513 1519 1523 1516 1503 1485 1474 1473 1473 1474 1475 1477 1479 1481 1484 1487 1490 1493 1496 1499 1501 1504 1506 1507 1508 1510 1511 1512 1514 1515 1516 1517 1518 1519 1519 1520 1520 1521 1521 1521 1521 1521 1521 1521 1521 1521
1478 1487 1502 1513 1525 1528 1515 1507 1498 1481 1477 1474 1474 1474 1475 1477 1480 1483 1485 1488 1491 1494 1498 1500 1502 1504 1506 1507 1508 1510 1511 1512 1514 1515 1516 1516 1517 1518 1519 1519 1519 1520 1520 1520 1520 1520 1520 1520 1520
1484 1490 1500 1511 1513 1524 1525 1510 1479 1476 1474 1473 1473 1473 1474 1476 1478 1482 1485 1487 1490 1493 1496 1498 1500 1503 1504 1505 1506 1508 1509 1511 1512 1513 1514 1515 1515 1516 1517 1518 1518 1518 1518 1518 1518 1518 1518 1518 1518
1476 1484 1495 1505 1511 1516 1519 1507 1472 1471 1470 1471 1471 1473 1474 1476 1478 1481 1484 1487 1489 1492 1494 1496 1499 1501 1503 1504 1505 1506 1508 1509 1510 1511 1512 1513 1514 1515 1515 1516 1516 1516 1516 1516 1516 1516 1516 1516 1516